This is the latest recevied weather packets stored in our database for station/object KC5DAQ-29. If no packets are shown the sender has not sent any weather packets the latest 10 day(s).
| Time | Temp. | Humidity | Pressure | Rain* | Wind** | Luminosity | Snow |
|---|---|---|---|---|---|---|---|
| 1778337961 | 24.44° C | 100% | 1007.7 hPa | 0 mm | - | 88 W/m² | - |
| 1778337904 | 24.44° C | 100% | 1007.7 hPa | 0 mm | - | 88 W/m² | - |
| 1778337842 | 24.44° C | 100% | 1007.9 hPa | 0 mm | - | 195 W/m² | - |
| 1778337783 | 24.44° C | 100% | 1007.8 hPa | 0 mm | - | 195 W/m² | - |
| 1778337723 | 24.44° C | 100% | 1007.7 hPa | 0 mm | - | 195 W/m² | - |
| 1778337664 | 24.44° C | 100% | 1007.7 hPa | 0 mm | - | 195 W/m² | - |
| 1778337603 | 24.44° C | 100% | 1007.7 hPa | 0 mm | - | 195 W/m² | - |
| 1778337543 | 24.44° C | 100% | 1007.6 hPa | 0 mm | - | 220 W/m² | - |
| 1778337485 | 24.44° C | 100% | 1007.6 hPa | 0 mm | - | 220 W/m² | - |
| 1778337424 | 24.44° C | 100% | 1007.6 hPa | 0 mm | - | 220 W/m² | - |
| 1778337364 | 24.44° C | 100% | 1007.7 hPa | 0 mm | - | 220 W/m² | - |
| 1778337304 | 24.44° C | 100% | 1007.6 hPa | 0 mm | - | 220 W/m² | - |
| 1778337243 | 24.44° C | 100% | 1007.5 hPa | 0 mm | - | 220 W/m² | - |
| 1778337183 | 24.44° C | 100% | 1007.4 hPa | 0 mm | - | 220 W/m² | - |
| 1778337124 | 24.44° C | 100% | 1007.4 hPa | 0 mm | - | 223 W/m² | - |
| 1778337063 | 24.44° C | 100% | 1007.3 hPa | 0 mm | - | 223 W/m² | - |
| 1778337003 | 24.44° C | 100% | 1007.3 hPa | 0 mm | - | 216 W/m² | - |
| 1778336943 | 24.44° C | 100% | 1007.2 hPa | 0 mm | - | 216 W/m² | - |
| 1778336883 | 24.44° C | 100% | 1007.2 hPa | 0 mm | - | 216 W/m² | - |
| 1778336824 | 24.44° C | 100% | 1007.2 hPa | 0 mm | - | 216 W/m² | - |
| 1778336764 | 24.44° C | 100% | 1007.1 hPa | 0 mm | - | 216 W/m² | - |
| 1778336704 | 24.44° C | 100% | 1007.2 hPa | 0 mm | - | 216 W/m² | - |
| 1778336641 | 24.44° C | 100% | 1007.2 hPa | 0 mm | - | 213 W/m² | - |
| 1778336582 | 24.44° C | 100% | 1007.2 hPa | 0 mm | - | 193 W/m² | - |
| 1778336523 | 24.44° C | 100% | 1007.3 hPa | 0 mm | - | 193 W/m² | - |
* Rain latest hour (hover to see other rain measurements)
** Current wind speed in m/s (hover to see current wind gust speed)